Location: Bakov nad Jizerou
(50.4784°N, 14.9394°E)
Time: 04:39:09
(UTC+00:00)

Cosmos 1727 Rocket - Pass Details

Date: 28 October 2021
Orbit: 960 x 997 km, 82.9° (Epoch: 07 December)

Event Time Altitude Azimuth Distance (km) Brightness Sun altitude
Rises 03:50:00 0° 158° (SSE) 3,692 7.3 -18.7°
Reaches altitude 10° 03:52:42 10° 150° (SSE) 2,743 6.7 -18.3°
Maximum altitude 03:58:20 36° 87° (E) 1,516 5.7 -17.4°
Drops below altitude 10° 04:03:56 10° 23° (NNE) 2,738 6.6 -16.5°
Sets 04:06:38 0° 16° (NNE) 3,684 7.2 -16.1°
